Location: Rounton
(54.4000°N, 1.3500°W)
Time: 01:36:17
(UTC+00:00)

SR - Pass Details

Date: 09 December 2021
Orbit: 582 x 872 km, 66.7° (Epoch: 26 January)

Event Time Altitude Azimuth Distance (km) Brightness Sun altitude
Exits shadow 07:28:13 - 303° (WNW) 2,109 ? -6.3°
Reaches altitude 10° 07:28:44 10° 299° (WNW) 1,936 ? -6.2°
Maximum altitude 07:32:18 25° 244° (WSW) 1,231 ? -5.8°
Drops below altitude 10° 07:36:00 10° 188° (S) 2,014 ? -5.3°
Sets 07:38:38 0° 176° (S) 2,964 ? -5.0°
